Location: Devargunta
(16.7631°N, 80.9077°E)
Time: 10:11:10
(UTC+00:00)

Cosmos 1726 Rocket - Pass Details

Date: 19 January 2021
Orbit: 604 x 628 km, 82.5° (Epoch: 01 March)

Event Time Altitude Azimuth Distance (km) Brightness Sun altitude
Rises 12:37:45 0° 7° (N) 2,873 6.7 -3.6°
Reaches altitude 10° 12:40:05 10° 15° (NNE) 1,972 5.8 -4.1°
Maximum altitude 12:44:10 39° 84° (E) 930 4.0 -5.0°
Drops below altitude 10° 12:48:17 10° 153° (SSE) 1,983 6.1 -6.0°
Sets 12:50:37 0° 161° (SSE) 2,891 7.0 -6.5°
